This is the latest recevied weather packets stored in our database for station/object XW7RMR. If no packets are shown the sender has not sent any weather packets the latest 1 day(s).
| Time | Temp. | Humidity | Pressure | Rain* | Wind** | Luminosity | Snow |
|---|---|---|---|---|---|---|---|
| 1778052375 | 14.44° C | 83% | 1016 hPa | 0 mm | - | 0 W/m² | - |
| 1778051165 | 15° C | 83% | 1016 hPa | 0 mm | - | 0 W/m² | - |
| 1778049044 | 15° C | 86% | 1015.9 hPa | 0 mm | - | 0 W/m² | - |
| 1778048742 | 15.56° C | 85% | 1015.8 hPa | 0 mm | - | 0 W/m² | - |
| 1778048135 | 15.56° C | 82% | 1015.8 hPa | 0 mm | - | 0 W/m² | - |
| 1778047833 | 15.56° C | 83% | 1015.8 hPa | 0 mm | - | 0 W/m² | - |
| 1778047228 | 15.56° C | 82% | 1015.7 hPa | 0 mm | - | 0 W/m² | - |
| 1778046925 | 15.56° C | 82% | 1015.6 hPa | 0 mm | - | 0 W/m² | - |
| 1778046319 | 15.56° C | 81% | 1015.7 hPa | 0 mm | - | 0 W/m² | - |
| 1778045713 | 15.56° C | 82% | 1015.7 hPa | 0 mm | - | 0 W/m² | - |
| 1778045411 | 15.56° C | 82% | 1015.5 hPa | 0 mm | - | 0 W/m² | - |
| 1778045109 | 15.56° C | 82% | 1015.4 hPa | 0 mm | - | 0 W/m² | - |
| 1778044200 | 15° C | 83% | 1015.5 hPa | 0 mm | - | 0 W/m² | - |
| 1778043898 | 15° C | 83% | 1015.6 hPa | 0 mm | - | 0 W/m² | - |
| 1778043595 | 15° C | 83% | 1015.4 hPa | 0 mm | - | 0 W/m² | - |
| 1778043291 | 15° C | 83% | 1015.4 hPa | 0 mm | - | 0 W/m² | - |
| 1778042988 | 15° C | 83% | 1015.2 hPa | 0 mm | - | 0 W/m² | - |
| 1778042686 | 15° C | 83% | 1015.2 hPa | 0 mm | - | 0 W/m² | - |
| 1778042080 | 15° C | 83% | 1015.3 hPa | 0 mm | - | 0 W/m² | - |
| 1778041778 | 15° C | 82% | 1015.2 hPa | 0 mm | - | 0 W/m² | - |
| 1778041477 | 15° C | 81% | 1015.1 hPa | 0 mm | - | 0 W/m² | - |
| 1778040872 | 15.56° C | 80% | 1014.8 hPa | 0 mm | - | 0 W/m² | - |
| 1778040569 | 15.56° C | 79% | 1015 hPa | 0 mm | - | 0 W/m² | - |
| 1778040267 | 15.56° C | 79% | 1014.9 hPa | 0 mm | - | 0 W/m² | - |
| 1778039962 | 16.11° C | 77% | 1014.8 hPa | 0 mm | - | 0 W/m² | - |
* Rain latest hour (hover to see other rain measurements)
** Current wind speed in m/s (hover to see current wind gust speed)